Location: *
(32.3300°N, 34.8500°E)
Time: 03:22:26
(UTC+00:00)

SL-16 R/B - Pass Details

Date: 22 October 2019
Orbit: 840 x 850 km, 71.0° (Epoch: 16 November)

Event Time Altitude Azimuth Distance (km) Brightness Sun altitude
Exits shadow 01:41:14 40° 179° (S) 1,222 2.9 -27.7°
Maximum altitude 01:43:16 71° 108° (ESE) 891 2.3 -27.3°
Drops below altitude 10° 01:48:54 10° 25° (NNE) 2,467 4.9 -26.1°
Sets 01:51:22 0° 24° (NNE) 3,407 5.7 -25.6°
